カタログに戻る

COSMOS 1275 DEB

運用中PO
NORAD 17642·DEBRIS·🇷🇺 Russia

打ち上げ Jun 4, 1981 から Plesetsk Cosmodrome

Loading…

次のパス (今後24時間)

TLE

最新Source: Space-Track

元期: Sep 14, 2026, 15:03 UTC

1 17642U 81053LM  26257.62719205  .00003199  00000-0  92794-3 0  9997
2 17642  82.8610  36.0980 0030806 191.3333 168.7171 14.43899022149718

AllMySatでCOSMOS 1275 DEBをリアルタイム追跡

Download on the App Store